| time (UTC) | temp F | wind direction | speed MPH | gust MPH | rain 1hr in | rain 24hr in | rain mn in | humidity % | barometer mb |
| 20260508023055 | 50 | 353 | 1.0 | 2.0 | 0.19 | 0.00 | 0.56 | 99 | 1015.4 |
| 20260508022555 | 50 | 7 | 3.0 | 7.0 | 0.28 | 0.00 | 0.55 | 99 | 1015.4 |
| 20260508022055 | 50 | 21 | 6.0 | 9.0 | 0.24 | 0.00 | 0.52 | 99 | 1015.4 |
| 20260508021555 | 50 | 353 | 3.0 | 9.0 | 0.24 | 0.00 | 0.50 | 99 | 1015.4 |
| 20260508021055 | 50 | 338 | 5.0 | 11.0 | 0.24 | 0.00 | 0.48 | 99 | 1015.5 |
| 20260508020555 | 50 | 346 | 6.0 | 13.0 | 0.26 | 0.00 | 0.46 | 99 | 1015.4 |
| 20260508020055 | 50 | 324 | 7.0 | 11.0 | 0.19 | 0.00 | 0.44 | 99 | 1015.4 |
| 20260508015555 | 50 | 325 | 12.0 | 15.0 | 0.16 | 0.00 | 0.42 | 99 | 1015.2 |
| 20260508015055 | 50 | 315 | 9.0 | 13.0 | 0.16 | 0.00 | 0.40 | 99 | 1015.3 |
| 20260508014555 | 50 | 324 | 8.0 | 11.0 | 0.24 | 0.00 | 0.39 | 99 | 1015.3 |
| 20260508014055 | 50 | 283 | 4.0 | 9.0 | 0.19 | 0.00 | 0.37 | 99 | 1015.1 |
| 20260508013555 | 50 | 276 | 4.0 | 11.0 | 0.19 | 0.00 | 0.35 | 99 | 1015.2 |
| 20260508013055 | 52 | 300 | 5.0 | 7.0 | 0.16 | 0.00 | 0.34 | 99 | 1015.3 |
| 20260508012555 | 52 | 296 | 5.0 | 11.0 | 0.24 | 0.00 | 0.32 | 99 | 1015.3 |
| 20260508012055 | 52 | 306 | 8.0 | 11.0 | 0.35 | 0.00 | 0.30 | 99 | 1014.9 |
| 20260508011555 | 52 | 304 | 7.0 | 17.0 | 0.28 | 0.00 | 0.27 | 99 | 1015.1 |
| 20260508011055 | 52 | 260 | 4.0 | 5.0 | 0.19 | 0.00 | 0.24 | 99 | 1015.0 |
| 20260508010555 | 52 | 276 | 0.0 | 0.0 | 0.24 | 0.00 | 0.22 | 99 | 1014.9 |
| 20260508010055 | 52 | 265 | 0.0 | 0.0 | 0.43 | 0.00 | 0.20 | 99 | 1015.0 |
| 20260508005555 | 52 | 264 | 2.0 | 4.0 | 0.54 | 0.00 | 0.17 | 99 | 1014.9 |
| 20260508005055 | 52 | 245 | 6.0 | 7.0 | 0.59 | 0.00 | 0.12 | 99 | 1014.8 |
| 20260508004555 | 52 | 218 | 1.0 | 4.0 | 0.38 | 0.00 | 0.07 | 99 | 1014.7 |
| 20260508004055 | 52 | 218 | 1.0 | 2.0 | 0.05 | 0.00 | 0.01 | 99 | 1014.8 |
| 20260508003555 | 52 | 218 | 0.0 | 0.0 | 0.05 | 0.00 | 0.01 | 99 | 1014.7 |
| 20260508003055 | 52 | 218 | 2.0 | 2.0 | 0.00 | 0.00 | 0.00 | 99 | 1014.8 |
| 20260508002555 | 52 | 218 | 0.0 | 0.0 | 0.00 | 0.00 | 0.00 | 99 | 1014.8 |
| 20260508002055 | 52 | 218 | 0.0 | 0.0 | 0.00 | 0.00 | 0.00 | 99 | 1015.0 |
| 20260508001555 | 52 | 218 | 0.0 | 0.0 | 0.00 | 0.00 | 0.00 | 99 | 1015.0 |
| 20260508001055 | 52 | 218 | 0.0 | 0.0 | 0.00 | 0.00 | 0.00 | 99 | 1014.8 |
| 20260508000555 | 52 | 218 | 0.0 | 0.0 | 0.00 | 0.00 | 0.00 | 99 | 1014.8 |
| 20260508000055 | 52 | 218 | 0.0 | 0.0 | 0.00 | 0.00 | 0.00 | 99 | 1014.9 |
| 20260507235555 | 52 | 218 | 0.0 | 2.0 | 0.00 | 0.00 | 0.00 | 98 | 1014.8 |
| 20260507235055 | 52 | 218 | 1.0 | 2.0 | 0.00 | 0.00 | 0.00 | 98 | 1014.8 |
| 20260507234555 | 52 | 218 | 1.0 | 2.0 | 0.00 | 0.00 | 0.00 | 98 | 1014.7 |
| 20260507234055 | 52 | 331 | 2.0 | 4.0 | 0.00 | 0.00 | 0.00 | 98 | 1014.8 |
| 20260507233555 | 52 | 332 | 0.0 | 0.0 | 0.00 | 0.00 | 0.00 | 98 | 1014.8 |
| 20260507233055 | 52 | 332 | 0.0 | 0.0 | 0.00 | 0.00 | 0.00 | 98 | 1014.9 |
| 20260507232555 | 52 | 332 | 0.0 | 2.0 | 0.00 | 0.00 | 0.00 | 98 | 1014.8 |
| 20260507232055 | 52 | 332 | 0.0 | 0.0 | 0.00 | 0.00 | 0.00 | 98 | 1015.2 |
| 20260507231555 | 52 | 331 | 2.0 | 2.0 | 0.00 | 0.00 | 0.00 | 98 | 1015.1 |
| 20260507231055 | 52 | 331 | 1.0 | 2.0 | 0.00 | 0.00 | 0.00 | 98 | 1015.0 |
| 20260507230555 | 52 | 332 | 1.0 | 2.0 | 0.00 | 0.00 | 0.00 | 98 | 1014.9 |
| 20260507230055 | 52 | 332 | 0.0 | 2.0 | 0.00 | 0.00 | 0.00 | 98 | 1014.9 |
| 20260507225555 | 52 | 332 | 2.0 | 4.0 | 0.00 | 0.00 | 0.00 | 98 | 1015.1 |
| 20260507225055 | 52 | 332 | 2.0 | 4.0 | 0.00 | 0.00 | 0.00 | 98 | 1014.9 |
| 20260507224555 | 52 | 332 | 4.0 | 5.0 | 0.00 | 0.00 | 0.00 | 98 | 1014.9 |
| 20260507224055 | 52 | 331 | 3.0 | 4.0 | 0.00 | 0.00 | 0.00 | 98 | 1015.1 |
| 20260507223555 | 52 | 331 | 0.0 | 4.0 | 0.00 | 0.00 | 0.00 | 98 | 1015.0 |
| 20260507223055 | 52 | 331 | 3.0 | 5.0 | 0.00 | 0.00 | 0.00 | 98 | 1014.9 |
| 20260507222555 | 52 | 329 | 6.0 | 7.0 | 0.00 | 0.00 | 0.00 | 98 | 1014.8 |
| 20260507222055 | 52 | 301 | 5.0 | 5.0 | 0.00 | 0.00 | 0.00 | 98 | 1014.9 |
| 20260507221555 | 52 | 293 | 3.0 | 4.0 | 0.00 | 0.00 | 0.00 | 98 | 1015.0 |
| 20260507221055 | 52 | 290 | 4.0 | 5.0 | 0.00 | 0.00 | 0.00 | 98 | 1014.9 |
| 20260507220555 | 52 | 287 | 3.0 | 5.0 | 0.00 | 0.00 | 0.00 | 97 | 1015.1 |
| 20260507220055 | 52 | 290 | 4.0 | 7.0 | 0.00 | 0.00 | 0.09 | 97 | 1015.0 |
| 20260507215555 | 52 | 292 | 3.0 | 5.0 | 0.00 | 0.00 | 0.09 | 97 | 1014.9 |
| 20260507215055 | 52 | 312 | 4.0 | 5.0 | 0.00 | 0.00 | 0.09 | 97 | 1014.8 |
| 20260507214555 | 52 | 297 | 1.0 | 2.0 | 0.00 | 0.00 | 0.09 | 97 | 1014.8 |
| 20260507214055 | 52 | 307 | 4.0 | 7.0 | 0.00 | 0.00 | 0.09 | 97 | 1014.8 |
| 20260507213555 | 54 | 284 | 4.0 | 7.0 | 0.00 | 0.00 | 0.09 | 97 | 1014.6 |
| 20260507213055 | 54 | 85 | 0.0 | 2.0 | 0.00 | 0.00 | 0.09 | 97 | 1014.7 |
| 20260507212555 | 54 | 85 | 3.0 | 4.0 | 0.00 | 0.00 | 0.09 | 97 | 1014.4 |
| 20260507212055 | 54 | 68 | 1.0 | 4.0 | 0.00 | 0.00 | 0.09 | 97 | 1014.3 |
| 20260507211555 | 54 | 68 | 2.0 | 4.0 | 0.00 | 0.00 | 0.09 | 97 | 1014.3 |
| 20260507211055 | 54 | 68 | 2.0 | 4.0 | 0.00 | 0.00 | 0.09 | 96 | 1014.3 |
| 20260507210555 | 54 | 68 | 3.0 | 4.0 | 0.00 | 0.00 | 0.09 | 96 | 1014.3 |
| 20260507210055 | 52 | 68 | 1.0 | 4.0 | 0.00 | 0.00 | 0.09 | 96 | 1014.3 |
| 20260507205555 | 52 | 68 | 0.0 | 2.0 | 0.00 | 0.00 | 0.09 | 96 | 1014.4 |
| 20260507205055 | 52 | 68 | 0.0 | 0.0 | 0.00 | 0.00 | 0.09 | 96 | 1014.3 |
| 20260507204555 | 52 | 68 | 0.0 | 0.0 | 0.00 | 0.00 | 0.09 | 96 | 1014.2 |
| 20260507204055 | 52 | 68 | 0.0 | 0.0 | 0.00 | 0.00 | 0.09 | 96 | 1014.3 |
| 20260507203555 | 52 | 68 | 0.0 | 0.0 | 0.00 | 0.00 | 0.09 | 95 | 1014.2 |
| 20260507203055 | 52 | 68 | 2.0 | 4.0 | 0.00 | 0.00 | 0.09 | 95 | 1014.3 |
| 20260507202555 | 54 | 68 | 2.0 | 4.0 | 0.00 | 0.00 | 0.09 | 95 | 1014.2 |
| 20260507202055 | 54 | 68 | 0.0 | 2.0 | 0.00 | 0.00 | 0.09 | 95 | 1014.2 |
| 20260507201555 | 54 | 68 | 0.0 | 2.0 | 0.00 | 0.00 | 0.09 | 95 | 1014.0 |
| 20260507201055 | 54 | 68 | 4.0 | 5.0 | 0.00 | 0.00 | 0.09 | 95 | 1013.8 |
| 20260507200555 | 54 | 55 | 2.0 | 9.0 | 0.07 | 0.00 | 0.09 | 95 | 1013.7 |
| 20260507200055 | 54 | 68 | 5.0 | 9.0 | 0.07 | 0.00 | 0.09 | 95 | 1013.8 |
| 20260507195555 | 54 | 52 | 8.0 | 15.0 | 0.05 | 0.00 | 0.08 | 94 | 1013.5 |
| 20260507195055 | 54 | 79 | 4.0 | 7.0 | 0.05 | 0.00 | 0.08 | 94 | 1013.8 |
| 20260507194555 | 54 | 77 | 10.0 | 13.0 | 0.12 | 0.00 | 0.07 | 94 | 1013.7 |
| 20260507194055 | 54 | 70 | 6.0 | 9.0 | 0.24 | 0.00 | 0.06 | 93 | 1013.7 |
| 20260507193555 | 54 | 41 | 5.0 | 9.0 | 0.19 | 0.00 | 0.05 | 93 | 1014.0 |
| 20260507193055 | 54 | 38 | 3.0 | 4.0 | 0.07 | 0.00 | 0.02 | 92 | 1014.0 |
| 20260507192555 | 54 | 20 | 0.0 | 4.0 | 0.12 | 0.00 | 0.02 | 92 | 1014.0 |
| 20260507192055 | 54 | 20 | 1.0 | 4.0 | 0.05 | 0.00 | 0.01 | 92 | 1013.9 |
| 20260507191555 | 54 | 7 | 4.0 | 5.0 | 0.00 | 0.00 | 0.00 | 91 | 1014.0 |
| 20260507191055 | 54 | 340 | 1.0 | 5.0 | 0.00 | 0.00 | 0.00 | 91 | 1014.0 |
| 20260507190555 | 54 | 18 | 6.0 | 11.0 | 0.00 | 0.00 | 0.00 | 91 | 1013.7 |
| 20260507190055 | 54 | 19 | 6.0 | 15.0 | 0.00 | 0.00 | 0.00 | 91 | 1013.7 |
| 20260507185555 | 54 | 22 | 13.0 | 22.0 | 0.00 | 0.00 | 0.00 | 90 | 1013.3 |
| 20260507185055 | 54 | 26 | 14.0 | 20.0 | 0.00 | 0.00 | 0.00 | 90 | 1013.4 |
| 20260507184555 | 55 | 49 | 14.0 | 18.0 | 0.00 | 0.00 | 0.00 | 89 | 1013.3 |
| 20260507184055 | 55 | 52 | 6.0 | 17.0 | 0.00 | 0.00 | 0.00 | 87 | 1013.1 |
| 20260507183555 | 55 | 51 | 14.0 | 17.0 | 0.00 | 0.00 | 0.00 | 86 | 1013.1 |
| 20260507183055 | 55 | 13 | 6.0 | 9.0 | 0.00 | 0.00 | 0.00 | 85 | 1012.8 |
| 20260507182555 | 55 | 48 | 15.0 | 18.0 | 0.00 | 0.00 | 0.00 | 84 | 1012.8 |
| 20260507182055 | 55 | 41 | 14.0 | 22.0 | 0.00 | 0.00 | 0.00 | 84 | 1012.5 |
| 20260507181555 | 55 | 51 | 11.0 | 15.0 | 0.00 | 0.00 | 0.00 | 83 | 1012.5 |
| 20260507181055 | 55 | 33 | 13.0 | 18.0 | 0.00 | 0.00 | 0.00 | 83 | 1012.4 |
| 20260507180555 | 55 | 342 | 8.0 | 15.0 | 0.00 | 0.00 | 0.00 | 84 | 1012.5 |
| 20260507180055 | 55 | 310 | 9.0 | 13.0 | 0.00 | 0.00 | 0.00 | 83 | 1012.5 |
| 20260507175555 | 55 | 315 | 10.0 | 15.0 | 0.00 | 0.00 | 0.00 | 82 | 1012.3 |
| 20260507175055 | 55 | 339 | 4.0 | 13.0 | 0.00 | 0.00 | 0.00 | 81 | 1012.0 |
| 20260507174555 | 57 | 359 | 4.0 | 13.0 | 0.00 | 0.00 | 0.00 | 81 | 1011.9 |
| 20260507174055 | 57 | 0 | 8.0 | 9.0 | 0.00 | 0.00 | 0.00 | 80 | 1011.7 |
| 20260507173555 | 57 | 345 | 7.0 | 11.0 | 0.00 | 0.00 | 0.00 | 80 | 1011.6 |
| 20260507173055 | 57 | 18 | 6.0 | 11.0 | 0.00 | 0.00 | 0.00 | 82 | 1011.6 |
| 20260507172555 | 59 | 25 | 7.0 | 9.0 | 0.00 | 0.00 | 0.00 | 81 | 1011.3 |
| 20260507172055 | 59 | 41 | 3.0 | 7.0 | 0.00 | 0.00 | 0.00 | 81 | 1011.4 |
| 20260507171555 | 59 | 42 | 12.0 | 15.0 | 0.00 | 0.00 | 0.00 | 80 | 1011.3 |
| 20260507171055 | 59 | 44 | 7.0 | 13.0 | 0.00 | 0.00 | 0.00 | 79 | 1011.1 |
| 20260507170555 | 59 | 11 | 10.0 | 11.0 | 0.00 | 0.00 | 0.00 | 79 | 1011.0 |
| 20260507170055 | 59 | 31 | 7.0 | 11.0 | 0.00 | 0.00 | 0.00 | 78 | 1010.9 |
| 20260507165555 | 59 | 28 | 3.0 | 7.0 | 0.00 | 0.00 | 0.00 | 77 | 1010.8 |
| 20260507165055 | 59 | 31 | 7.0 | 9.0 | 0.00 | 0.00 | 0.00 | 77 | 1011.0 |
| 20260507164555 | 59 | 9 | 2.0 | 9.0 | 0.00 | 0.00 | 0.00 | 78 | 1010.9 |
| 20260507164055 | 59 | 27 | 4.0 | 7.0 | 0.00 | 0.00 | 0.00 | 78 | 1011.0 |
| 20260507163555 | 61 | 22 | 3.0 | 4.0 | 0.00 | 0.00 | 0.00 | 78 | 1011.0 |
| 20260507163055 | 61 | 22 | 2.0 | 5.0 | 0.00 | 0.00 | 0.00 | 78 | 1010.8 |
| 20260507162555 | 61 | 39 | 5.0 | 11.0 | 0.00 | 0.00 | 0.00 | 77 | 1010.6 |
| 20260507162055 | 61 | 60 | 7.0 | 11.0 | 0.00 | 0.00 | 0.00 | 78 | 1010.7 |
| 20260507161555 | 59 | 35 | 13.0 | 18.0 | 0.00 | 0.00 | 0.00 | 79 | 1010.7 |
| 20260507161055 | 61 | 343 | 6.0 | 9.0 | 0.00 | 0.00 | 0.00 | 80 | 1010.6 |
| 20260507160555 | 61 | 98 | 0.0 | 2.0 | 0.00 | 0.00 | 0.00 | 80 | 1010.5 |
| 20260507160055 | 61 | 125 | 4.0 | 9.0 | 0.00 | 0.00 | 0.00 | 79 | 1010.6 |
| 20260507155555 | 61 | 103 | 5.0 | 7.0 | 0.00 | 0.00 | 0.00 | 79 | 1010.4 |
| 20260507155055 | 61 | 107 | 5.0 | 9.0 | 0.00 | 0.00 | 0.00 | 78 | 1010.6 |
| 20260507154555 | 61 | 125 | 8.0 | 11.0 | 0.00 | 0.00 | 0.00 | 79 | 1010.5 |
| 20260507154055 | 61 | 114 | 9.0 | 11.0 | 0.00 | 0.00 | 0.00 | 78 | 1010.7 |
| 20260507153555 | 61 | 131 | 6.0 | 11.0 | 0.00 | 0.00 | 0.00 | 76 | 1010.5 |
| 20260507153055 | 61 | 103 | 4.0 | 5.0 | 0.00 | 0.00 | 0.00 | 77 | 1010.5 |
| 20260507152555 | 61 | 126 | 5.0 | 7.0 | 0.00 | 0.00 | 0.00 | 77 | 1010.6 |
| 20260507152055 | 61 | 122 | 1.0 | 7.0 | 0.00 | 0.00 | 0.00 | 78 | 1010.4 |
| 20260507151555 | 61 | 131 | 2.0 | 9.0 | 0.00 | 0.00 | 0.00 | 79 | 1010.4 |
| 20260507151055 | 61 | 138 | 4.0 | 9.0 | 0.00 | 0.00 | 0.00 | 79 | 1010.3 |
| 20260507150555 | 61 | 104 | 6.0 | 9.0 | 0.00 | 0.00 | 0.00 | 79 | 1010.4 |
| 20260507150055 | 61 | 119 | 5.0 | 9.0 | 0.00 | 0.00 | 0.00 | 80 | 1010.3 |
| 20260507145555 | 61 | 122 | 6.0 | 11.0 | 0.00 | 0.00 | 0.00 | 82 | 1010.3 |
| 20260507145055 | 63 | 109 | 1.0 | 7.0 | 0.00 | 0.00 | 0.00 | 82 | 1010.2 |
| 20260507144555 | 61 | 115 | 3.0 | 7.0 | 0.00 | 0.00 | 0.00 | 80 | 1010.2 |
| 20260507144055 | 61 | 76 | 5.0 | 9.0 | 0.00 | 0.00 | 0.00 | 77 | 1010.4 |
| 20260507143555 | 61 | 116 | 4.0 | 7.0 | 0.00 | 0.00 | 0.00 | 78 | 1010.5 |
| 20260507143055 | 61 | 130 | 5.0 | 9.0 | 0.00 | 0.00 | 0.00 | 78 | 1010.4 |
| 20260507142555 | 61 | 104 | 5.0 | 7.0 | 0.00 | 0.00 | 0.00 | 77 | 1010.4 |
| 20260507142055 | 61 | 149 | 8.0 | 13.0 | 0.00 | 0.00 | 0.00 | 78 | 1010.5 |
| 20260507141555 | 61 | 112 | 3.0 | 5.0 | 0.00 | 0.00 | 0.00 | 80 | 1010.5 |
| 20260507141055 | 63 | 92 | 8.0 | 11.0 | 0.00 | 0.00 | 0.00 | 77 | 1010.5 |
| 20260507140555 | 63 | 93 | 5.0 | 9.0 | 0.00 | 0.00 | 0.00 | 75 | 1010.3 |
| 20260507140055 | 64 | 84 | 6.0 | 11.0 | 0.00 | 0.00 | 0.00 | 70 | 1010.1 |
| 20260507135555 | 64 | 119 | 2.0 | 9.0 | 0.00 | 0.00 | 0.00 | 69 | 1010.3 |
| 20260507135055 | 64 | 116 | 6.0 | 9.0 | 0.00 | 0.00 | 0.00 | 66 | 1010.0 |
| 20260507134555 | 64 | 118 | 5.0 | 7.0 | 0.00 | 0.00 | 0.00 | 64 | 1010.3 |
| 20260507134055 | 64 | 114 | 5.0 | 11.0 | 0.00 | 0.00 | 0.00 | 64 | 1010.3 |
| 20260507133555 | 64 | 132 | 6.0 | 9.0 | 0.00 | 0.00 | 0.00 | 63 | 1010.1 |
| 20260507133055 | 66 | 95 | 8.0 | 9.0 | 0.00 | 0.00 | 0.00 | 61 | 1009.9 |
| 20260507132555 | 66 | 118 | 0.0 | 2.0 | 0.00 | 0.00 | 0.00 | 60 | 1010.1 |
| 20260507132055 | 66 | 118 | 2.0 | 4.0 | 0.00 | 0.00 | 0.00 | 59 | 1010.0 |
| 20260507131555 | 66 | 118 | 4.0 | 4.0 | 0.00 | 0.00 | 0.00 | 59 | 1009.7 |
| 20260507131055 | 68 | 209 | 0.0 | 4.0 | 0.00 | 0.00 | 0.00 | 58 | 1009.8 |
| 20260507130555 | 68 | 209 | 1.0 | 7.0 | 0.00 | 0.00 | 0.00 | 58 | 1010.0 |
| 20260507130055 | 68 | 210 | 0.0 | 2.0 | 0.00 | 0.00 | 0.00 | 58 | 1010.0 |
| 20260507125555 | 66 | 210 | 2.0 | 5.0 | 0.00 | 0.00 | 0.00 | 60 | 1010.0 |
| 20260507125055 | 66 | 207 | 3.0 | 5.0 | 0.00 | 0.00 | 0.00 | 60 | 1010.1 |
| 20260507124555 | 66 | 207 | 0.0 | 2.0 | 0.00 | 0.00 | 0.00 | 60 | 1010.7 |
| 20260507124055 | 66 | 207 | 4.0 | 7.0 | 0.00 | 0.00 | 0.00 | 60 | 1010.2 |
| 20260507123555 | 66 | 240 | 4.0 | 5.0 | 0.00 | 0.00 | 0.00 | 60 | 1010.2 |
| 20260507123055 | 66 | 267 | 2.0 | 4.0 | 0.00 | 0.00 | 0.00 | 60 | 1010.2 |
| 20260507122555 | 66 | 267 | 3.0 | 7.0 | 0.00 | 0.00 | 0.00 | 60 | 1010.2 |
| 20260507122055 | 66 | 252 | 6.0 | 7.0 | 0.00 | 0.00 | 0.00 | 60 | 1010.0 |
| 20260507121555 | 66 | 315 | 1.0 | 2.0 | 0.00 | 0.00 | 0.00 | 60 | 1010.1 |
| 20260507121055 | 66 | 315 | 4.0 | 5.0 | 0.00 | 0.00 | 0.00 | 60 | 1010.1 |
| 20260507120555 | 66 | 289 | 9.0 | 11.0 | 0.00 | 0.00 | 0.00 | 60 | 1010.3 |
| 20260507120055 | 66 | 289 | 3.0 | 7.0 | 0.00 | 0.00 | 0.00 | 60 | 1010.2 |
| 20260507115555 | 66 | 276 | 11.0 | 13.0 | 0.00 | 0.00 | 0.00 | 59 | 1010.2 |
| 20260507115055 | 66 | 268 | 5.0 | 5.0 | 0.00 | 0.00 | 0.00 | 59 | 1010.0 |
| 20260507114555 | 66 | 260 | 4.0 | 11.0 | 0.00 | 0.00 | 0.00 | 60 | 1010.0 |
| 20260507114055 | 66 | 241 | 7.0 | 7.0 | 0.00 | 0.00 | 0.00 | 61 | 1010.2 |
| 20260507113555 | 66 | 282 | 0.0 | 5.0 | 0.00 | 0.00 | 0.00 | 61 | 1010.1 |
| 20260507113055 | 66 | 320 | 5.0 | 11.0 | 0.00 | 0.00 | 0.00 | 62 | 1010.1 |
| 20260507112555 | 64 | 286 | 7.0 | 9.0 | 0.00 | 0.00 | 0.00 | 62 | 1010.2 |
| 20260507112055 | 64 | 263 | 9.0 | 11.0 | 0.00 | 0.00 | 0.00 | 63 | 1010.4 |
| 20260507111555 | 64 | 241 | 5.0 | 7.0 | 0.00 | 0.00 | 0.00 | 64 | 1010.5 |
| 20260507111055 | 64 | 273 | 5.0 | 11.0 | 0.00 | 0.00 | 0.00 | 64 | 1010.4 |
| 20260507110555 | 64 | 235 | 7.0 | 9.0 | 0.00 | 0.00 | 0.00 | 65 | 1010.3 |
| 20260507110055 | 64 | 260 | 4.0 | 7.0 | 0.00 | 0.00 | 0.00 | 65 | 1010.5 |
| 20260507105555 | 64 | 248 | 6.0 | 9.0 | 0.00 | 0.00 | 0.00 | 65 | 1010.2 |
| 20260507105055 | 64 | 246 | 5.0 | 7.0 | 0.00 | 0.00 | 0.00 | 65 | 1010.4 |
| 20260507104555 | 64 | 218 | 0.0 | 9.0 | 0.00 | 0.00 | 0.00 | 64 | 1010.2 |
| 20260507104055 | 64 | 259 | 6.0 | 11.0 | 0.00 | 0.00 | 0.00 | 65 | 1010.4 |
| 20260507103555 | 64 | 271 | 7.0 | 9.0 | 0.00 | 0.00 | 0.00 | 67 | 1010.4 |
| 20260507103055 | 64 | 266 | 11.0 | 17.0 | 0.00 | 0.00 | 0.00 | 66 | 1010.4 |
| 20260507102555 | 64 | 274 | 7.0 | 11.0 | 0.00 | 0.00 | 0.00 | 66 | 1010.3 |
| 20260507102055 | 64 | 225 | 12.0 | 18.0 | 0.00 | 0.00 | 0.00 | 65 | 1010.1 |
| 20260507101555 | 64 | 233 | 7.0 | 15.0 | 0.00 | 0.00 | 0.00 | 65 | 1010.0 |
| 20260507101055 | 64 | 215 | 10.0 | 13.0 | 0.00 | 0.00 | 0.00 | 64 | 1010.1 |
| 20260507100555 | 64 | 276 | 8.0 | 9.0 | 0.00 | 0.00 | 0.00 | 64 | 1010.0 |
| 20260507100055 | 64 | 206 | 9.0 | 17.0 | 0.00 | 0.00 | 0.00 | 66 | 1010.1 |
| 20260507095555 | 64 | 227 | 11.0 | 17.0 | 0.00 | 0.00 | 0.00 | 66 | 1010.0 |
| 20260507095055 | 64 | 263 | 9.0 | 17.0 | 0.00 | 0.00 | 0.00 | 66 | 1010.0 |
| 20260507094555 | 64 | 239 | 8.0 | 13.0 | 0.00 | 0.00 | 0.00 | 64 | 1009.7 |
| 20260507094055 | 64 | 262 | 9.0 | 15.0 | 0.00 | 0.00 | 0.00 | 68 | 1010.0 |
| 20260507093555 | 64 | 231 | 8.0 | 22.0 | 0.00 | 0.00 | 0.00 | 69 | 1010.1 |
| 20260507093055 | 63 | 272 | 10.0 | 17.0 | 0.00 | 0.00 | 0.00 | 70 | 1009.9 |
| 20260507092555 | 63 | 286 | 10.0 | 15.0 | 0.00 | 0.00 | 0.00 | 71 | 1009.8 |
| 20260507092055 | 63 | 273 | 14.0 | 18.0 | 0.00 | 0.00 | 0.00 | 71 | 1009.9 |
| 20260507091555 | 63 | 206 | 9.0 | 20.0 | 0.00 | 0.00 | 0.00 | 72 | 1009.7 |
| 20260507091055 | 63 | 283 | 16.0 | 20.0 | 0.00 | 0.00 | 0.00 | 71 | 1009.7 |
| 20260507090555 | 63 | 264 | 6.0 | 11.0 | 0.00 | 0.00 | 0.00 | 72 | 1009.6 |
| 20260507090055 | 63 | 246 | 11.0 | 13.0 | 0.00 | 0.00 | 0.00 | 72 | 1009.5 |
| 20260507085555 | 63 | 237 | 12.0 | 22.0 | 0.00 | 0.00 | 0.00 | 71 | 1009.4 |
| 20260507085059 | 63 | 271 | 13.0 | 17.0 | 0.00 | 0.00 | 0.00 | 72 | 1009.3 |
| 20260507084559 | 63 | 280 | 12.0 | 17.0 | 0.00 | 0.00 | 0.00 | 72 | 1009.4 |
| 20260507084059 | 63 | 226 | 10.0 | 20.0 | 0.00 | 0.00 | 0.00 | 73 | 1009.3 |
| 20260507083559 | 63 | 232 | 9.0 | 15.0 | 0.00 | 0.00 | 0.00 | 73 | 1009.2 |
| 20260507083059 | 63 | 298 | 8.0 | 17.0 | 0.00 | 0.00 | 0.00 | 73 | 1009.2 |
| 20260507082559 | 63 | 232 | 9.0 | 17.0 | 0.00 | 0.00 | 0.00 | 73 | 1009.2 |
| 20260507082059 | 63 | 270 | 6.0 | 15.0 | 0.00 | 0.00 | 0.00 | 73 | 1009.2 |
| 20260507081559 | 63 | 248 | 8.0 | 18.0 | 0.00 | 0.00 | 0.00 | 73 | 1008.9 |
| 20260507081059 | 63 | 221 | 12.0 | 22.0 | 0.00 | 0.00 | 0.00 | 73 | 1009.0 |
| 20260507080559 | 63 | 259 | 4.0 | 22.0 | 0.00 | 0.00 | 0.00 | 73 | 1009.0 |
| 20260507080059 | 63 | 230 | 10.0 | 20.0 | 0.00 | 0.00 | 0.00 | 72 | 1008.8 |
| 20260507075559 | 63 | 208 | 11.0 | 20.0 | 0.00 | 0.00 | 0.00 | 71 | 1008.8 |
| 20260507075059 | 63 | 236 | 10.0 | 20.0 | 0.00 | 0.00 | 0.00 | 72 | 1008.5 |
| 20260507074559 | 63 | 230 | 12.0 | 22.0 | 0.00 | 0.00 | 0.00 | 72 | 1008.5 |
| 20260507074059 | 63 | 141 | 14.0 | 28.0 | 0.00 | 0.00 | 0.00 | 72 | 1008.8 |
| 20260507073559 | 63 | 233 | 8.0 | 15.0 | 0.00 | 0.00 | 0.00 | 72 | 1008.6 |
| 20260507073059 | 61 | 230 | 9.0 | 13.0 | 0.00 | 0.00 | 0.00 | 72 | 1008.5 |
| 20260507072559 | 61 | 236 | 11.0 | 22.0 | 0.00 | 0.00 | 0.00 | 74 | 1008.5 |
| 20260507072059 | 61 | 215 | 21.0 | 26.0 | 0.00 | 0.00 | 0.00 | 73 | 1008.6 |
| 20260507071559 | 61 | 231 | 17.0 | 22.0 | 0.00 | 0.00 | 0.00 | 73 | 1008.5 |
| 20260507071059 | 61 | 250 | 8.0 | 18.0 | 0.00 | 0.00 | 0.00 | 74 | 1008.5 |
| 20260507070559 | 61 | 219 | 10.0 | 18.0 | 0.00 | 0.00 | 0.00 | 74 | 1008.6 |
| 20260507070059 | 61 | 236 | 9.0 | 13.0 | 0.00 | 0.00 | 0.00 | 74 | 1008.6 |
| 20260507065559 | 61 | 229 | 6.0 | 18.0 | 0.00 | 0.00 | 0.00 | 75 | 1008.7 |
| 20260507065059 | 59 | 205 | 6.0 | 17.0 | 0.00 | 0.00 | 0.00 | 75 | 1008.7 |
| 20260507064559 | 59 | 223 | 12.0 | 26.0 | 0.00 | 0.00 | 0.00 | 75 | 1008.6 |
| 20260507064059 | 59 | 204 | 10.0 | 18.0 | 0.00 | 0.00 | 0.00 | 75 | 1008.6 |
| 20260507063559 | 61 | 220 | 8.0 | 13.0 | 0.00 | 0.00 | 0.00 | 75 | 1008.5 |
| 20260507063059 | 61 | 224 | 12.0 | 18.0 | 0.00 | 0.00 | 0.00 | 74 | 1008.4 |
| 20260507062559 | 61 | 232 | 8.0 | 15.0 | 0.00 | 0.00 | 0.00 | 74 | 1008.4 |
| 20260507062059 | 59 | 268 | 12.0 | 17.0 | 0.00 | 0.00 | 0.00 | 74 | 1008.5 |
| 20260507061559 | 59 | 263 | 6.0 | 11.0 | 0.00 | 0.00 | 0.00 | 75 | 1008.3 |
| 20260507061059 | 59 | 211 | 8.0 | 13.0 | 0.00 | 0.00 | 0.00 | 75 | 1008.4 |
| 20260507060559 | 59 | 244 | 3.0 | 4.0 | 0.00 | 0.00 | 0.00 | 74 | 1008.5 |
| 20260507060059 | 59 | 246 | 1.0 | 4.0 | 0.00 | 0.00 | 0.00 | 74 | 1008.1 |
| 20260507055559 | 59 | 246 | 2.0 | 4.0 | 0.00 | 0.00 | 0.00 | 73 | 1008.1 |
| 20260507055059 | 59 | 246 | 3.0 | 4.0 | 0.00 | 0.00 | 0.00 | 73 | 1008.1 |
| 20260507054559 | 59 | 240 | 4.0 | 5.0 | 0.00 | 0.00 | 0.00 | 73 | 1008.2 |
| 20260507054059 | 59 | 241 | 2.0 | 4.0 | 0.00 | 0.00 | 0.00 | 73 | 1008.0 |
| 20260507053559 | 59 | 254 | 4.0 | 4.0 | 0.00 | 0.00 | 0.00 | 73 | 1008.1 |
| 20260507053059 | 59 | 267 | 4.0 | 5.0 | 0.00 | 0.00 | 0.00 | 73 | 1008.3 |
| 20260507052559 | 59 | 229 | 1.0 | 4.0 | 0.00 | 0.00 | 0.00 | 73 | 1008.1 |
| 20260507052059 | 59 | 229 | 2.0 | 4.0 | 0.00 | 0.00 | 0.00 | 73 | 1007.9 |
| 20260507051559 | 59 | 229 | 3.0 | 4.0 | 0.00 | 0.00 | 0.00 | 73 | 1007.8 |
| 20260507051059 | 59 | 229 | 0.0 | 2.0 | 0.00 | 0.00 | 0.00 | 73 | 1008.0 |
| 20260507050559 | 59 | 229 | 1.0 | 2.0 | 0.00 | 0.00 | 0.00 | 73 | 1007.9 |
| 20260507050059 | 59 | 229 | 1.0 | 2.0 | 0.00 | 0.00 | 0.00 | 73 | 1007.8 |
| 20260507045559 | 59 | 229 | 0.0 | 0.0 | 0.00 | 0.00 | 0.00 | 73 | 1007.8 |
| 20260507045059 | 59 | 229 | 0.0 | 0.0 | 0.00 | 0.00 | 0.00 | 73 | 1007.7 |
| 20260507044559 | 59 | 229 | 0.0 | 2.0 | 0.00 | 0.00 | 0.00 | 73 | 1007.6 |
| 20260507044059 | 59 | 229 | 2.0 | 4.0 | 0.00 | 0.00 | 0.00 | 73 | 1007.6 |
| 20260507043559 | 59 | 229 | 2.0 | 4.0 | 0.00 | 0.00 | 0.00 | 73 | 1007.7 |
| 20260507043059 | 59 | 229 | 1.0 | 5.0 | 0.00 | 0.00 | 0.00 | 72 | 1007.6 |
| 20260507042559 | 59 | 229 | 2.0 | 4.0 | 0.00 | 0.00 | 0.00 | 71 | 1007.6 |
| 20260507042059 | 59 | 229 | 2.0 | 4.0 | 0.00 | 0.00 | 0.00 | 71 | 1007.3 |
| 20260507041559 | 59 | 229 | 0.0 | 0.0 | 0.00 | 0.00 | 0.00 | 71 | 1007.3 |
| 20260507041059 | 59 | 229 | 0.0 | 0.0 | 0.00 | 0.00 | 0.00 | 72 | 1007.5 |
| 20260507040059 | 59 | 229 | 0.0 | 0.0 | 0.00 | 0.00 | 0.00 | 72 | 1007.4 |
| 20260507035559 | 59 | 229 | 0.0 | 0.0 | 0.00 | 0.00 | 0.00 | 71 | 1007.1 |
| 20260507035059 | 59 | 229 | 0.0 | 0.0 | 0.00 | 0.00 | 0.00 | 71 | 1007.1 |
| 20260507034559 | 59 | 229 | 0.0 | 0.0 | 0.00 | 0.00 | 0.00 | 71 | 1007.2 |
| 20260507034059 | 59 | 229 | 2.0 | 5.0 | 0.00 | 0.00 | 0.00 | 71 | 1006.8 |
| 20260507033559 | 59 | 229 | 2.0 | 4.0 | 0.00 | 0.00 | 0.00 | 71 | 1006.9 |
| 20260507033059 | 59 | 229 | 2.0 | 4.0 | 0.00 | 0.00 | 0.00 | 71 | 1006.9 |
| 20260507032559 | 59 | 229 | 1.0 | 2.0 | 0.00 | 0.00 | 0.00 | 71 | 1006.6 |
| 20260507032059 | 59 | 229 | 0.0 | 2.0 | 0.00 | 0.00 | 0.00 | 71 | 1006.9 |
| 20260507031559 | 59 | 229 | 0.0 | 2.0 | 0.00 | 0.00 | 0.00 | 71 | 1006.6 |
| 20260507031059 | 59 | 229 | 0.0 | 0.0 | 0.00 | 0.00 | 0.00 | 71 | 1006.9 |
| 20260507030559 | 59 | 229 | 0.0 | 2.0 | 0.00 | 0.00 | 0.00 | 71 | 1006.8 |
| 20260507030059 | 59 | 229 | 0.0 | 2.0 | 0.00 | 0.00 | 0.00 | 71 | 1006.8 |
| 20260507025559 | 59 | 229 | 0.0 | 0.0 | 0.00 | 0.00 | 0.00 | 71 | 1006.9 |
| 20260507025059 | 59 | 229 | 0.0 | 2.0 | 0.00 | 0.00 | 0.00 | 71 | 1006.8 |
| 20260507024559 | 59 | 229 | 0.0 | 0.0 | 0.00 | 0.00 | 0.00 | 71 | 1006.9 |
| 20260507024059 | 59 | 229 | 0.0 | 2.0 | 0.00 | 0.00 | 0.00 | 71 | 1006.8 |
| 20260507023559 | 59 | 229 | 1.0 | 2.0 | 0.00 | 0.00 | 0.00 | 71 | 1006.7 |